Simultaneous Nadir Overpasses (SNOs) Predictions

Prediction of SNOs between METOP-C and LANDSAT-8 Satellite Orbit:

Table of predicted SNOs for the next 14.0 days since TLE Epoch: 5/17/2019
Index Date (METOP-C) Time (METOP-C) Lat,Lon (METOP-C) SZA (METOP-C ) Date (LANDSAT-8) Time (LANDSAT-8) Lat,Lon (LANDSAT-8) SZA (LANDSAT-8 ) Distance(km) Time Diff (sec)
1 05/18/2019 12:51:44 81.12, 26.95 63.81 05/18/2019 12:52:23 81.12, 26.88 63.81 1.24 39
2 05/18/2019 13:42:24 -81.14,-165.16 116.13 05/18/2019 13:41:49 -81.15,-165.10 116.14 1.34 35
3 05/21/2019 08:26:08 81.12, 93.15 63.18 05/21/2019 08:26:40 81.12, 93.28 63.21 2.29 32
4 05/21/2019 09:16:47 -81.15, -98.53 116.70 05/21/2019 09:16:06 -81.15, -98.67 116.73 2.38 41
5 05/24/2019 04:00:30 81.12, 159.73 62.65 05/24/2019 04:00:56 81.12, 159.65 62.65 1.44 26
6 05/24/2019 04:51:10 -81.14, -32.28 117.27 05/24/2019 04:50:22 -81.14, -32.28 117.29 0.05 48
7 05/26/2019 23:34:53 81.13,-133.68 62.17 05/26/2019 23:35:12 81.13,-133.63 62.19 1.10 19
8 05/27/2019 00:25:34 -81.14, 33.97 117.80 05/27/2019 00:24:39 -81.14, 34.09 117.81 1.96 55
9 05/29/2019 19:09:17 81.12, -67.47 61.68 05/29/2019 19:09:29 81.13, -67.32 61.71 2.74 12




NCC Satellite Simultaneous Nadir Overpasses (SNOs) Prediction Service
